NE BAHAMAS NM ENE of Nassau, Bahamas (41047)

Conditions for Tuesday

Daily
Weekly
Monthly
Marine Data Graph

Current Weather/Wave Observations

Air Temperature: 77° F
Humidity: 60
Wind direction (W Dir): South (175 - 184 Degrees)
Wind Speed (W Spd): 13.6 kts (15.7 mph)
Wind Gust (W Spd): 17.5 kts (20.1 mph)
Dominant Wave Period (DWP): 9 sec
Dominant Wave Height (DWH): 3.61 ft
Dominant Wave Range (DWR): exactly 3.6 ft
Wind Wave Period (WWP): 4 sec
Wind Wave Height (WWH): 1.64 ft
Wind Wave Range (WWR): 0.82 - 2.46 ft
Wave Swell Period (WSP): 9 sec
Wave Swell Height (WSH): 3.28 ft
Wave Swell Range (WSR): 2.46 - 4.10 ft
Atmospheric Pressure (AP): 30.09 in

Updated: 3:50 PM GMT on December 06, 2016

Ad Blocker Enabled

Marine & Boating Location Search

Enter a coastal zip code for marine weather.

Current Wave Detail Observations

Water Depth: 17438 ft
Wave Height: 3.44 ft
Spectral Peak Period: 9.1 sec
Average Wave Period: 5.0 sec
Sampling Interval: 0.6 sec
Wave Record: 2400 sec

Updated: 4:00 PM GMT on December 06, 2016

General Information

Location: 27.517 North -71.483 West
Buoy Type: 3-meter discus buoy
Buoy Hull: 3DV42
Payload: SCOOP payload
Owned by: NDBC
Windspeed: Measured by obtained from anemometer
Sea Surface: Measured by Intake
Note:


Weather and Wave Data

Time Temp Humidity Wind Dominant Wave Wind Wave Wave Swell Pressure
  Air
(°F)
Water
(°F)
  Dir Speed
(kts)
Speed
(mph)
Period
(sec)
Height
(ft)
Range
(ft)
Period
(sec)
Height
(ft)
Range
(ft)
Period
(sec)
Height
(ft)
Range
(ft)
Atmo.
(in)
Tend.
(in)
20:10 74 78 56 SSE 7.8 8.9 - - - - - - 30.06 -
20:20 73 78 57 SE 7.8 8.9 - - - - - - 30.06 -
20:30 74 78 56 SE 9.7 11.2 - - - - - - 30.06 -
20:40 74 78 54 SSE 9.7 11.2 - - - - - - 30.06 -
20:50 74 78 56 SSE 7.8 8.9 9 4.92 exactly 4.9 5 1.64 0.82 - 2.46 9 4.92 4.10 - 5.74 30.06 -
21:10 73 78 59 SE 9.7 11.2 - - - - - - 30.05 -
21:20 73 78 60 SE 9.7 11.2 - - - - - - 30.05 -
21:30 74 78 58 SSE 9.7 11.2 - - - - - - 30.05 -
21:40 74 78 58 SE 9.7 11.2 - - - - - - 30.05 -
21:50 74 78 58 SSE 9.7 11.2 8 4.59 exactly 4.6 3 1.64 0.82 - 2.46 8 4.92 4.10 - 5.74 30.05 -
22:10 74 78 57 SSE 11.7 13.4 - - - - - - 30.05 -
22:20 74 78 56 SSE 11.7 13.4 - - - - - - 30.05 -
22:30 74 78 56 SSE 11.7 13.4 - - - - - - 30.05 -
22:40 74 78 55 SSE 9.7 11.2 - - - - - - 30.06 -
22:50 74 78 56 SSE 9.7 11.2 9 4.59 exactly 4.6 3 1.64 0.82 - 2.46 9 4.92 4.10 - 5.74 30.06 -
23:10 74 78 57 SSE 9.7 11.2 - - - - - - 30.06 -
23:20 74 78 58 SSE 9.7 11.2 - - - - - - 30.07 -
23:30 74 78 57 SSE 9.7 11.2 - - - - - - 30.07 -
23:40 74 78 57 SSE 9.7 11.2 - - - - - - 30.08 -
23:50 74 78 57 SSE 9.7 11.2 10 4.59 exactly 4.6 6 1.64 0.82 - 2.46 10 4.92 4.10 - 5.74 30.08 -
00:10 74 78 58 SSE 9.7 11.2 - - - - - - 30.09 -
00:20 74 78 58 SE 9.7 11.2 - - - - - - 30.09 -
00:30 74 78 56 SSE 9.7 11.2 - - - - - - 30.09 -
00:40 74 78 56 SE 9.7 11.2 - - - - - - 30.10 -
00:50 74 78 56 SE 9.7 11.2 10 4.59 exactly 4.6 3 1.64 0.82 - 2.46 10 4.92 4.10 - 5.74 30.11 -
01:10 74 78 56 ESE 7.8 8.9 - - - - - - 30.11 -
01:20 74 78 55 SE 7.8 8.9 - - - - - - 30.11 -
01:30 74 78 57 ESE 7.8 8.9 - - - - - - 30.11 -
01:40 74 78 57 SE 7.8 8.9 - - - - - - 30.11 -
01:50 74 78 57 SE 9.7 11.2 9 4.27 exactly 4.3 3 1.64 0.82 - 2.46 9 4.92 4.10 - 5.74 30.11 -
02:10 74 78 57 SE 9.7 11.2 - - - - - - 30.11 -
02:20 74 78 57 SE 7.8 8.9 - - - - - - 30.11 -
02:30 74 78 56 SE 7.8 8.9 - - - - - - 30.11 -
02:40 74 78 56 SE 7.8 8.9 - - - - - - 30.11 -
02:50 74 78 57 SE 7.8 8.9 9 4.27 exactly 4.3 3 1.64 0.82 - 2.46 9 4.92 4.10 - 5.74 30.11 -
03:10 74 78 58 SE 9.7 11.2 - - - - - - 30.11 -
03:20 74 78 57 SE 7.8 8.9 - - - - - - 30.11 -
03:30 74 78 58 SSE 7.8 8.9 - - - - - - 30.10 -
03:40 74 78 58 SSE 7.8 8.9 - - - - - - 30.10 -
03:50 74 78 58 SSE 7.8 8.9 9 4.59 exactly 4.6 4 1.64 0.82 - 2.46 9 4.92 4.10 - 5.74 30.09 -
04:10 74 78 58 SSE 7.8 8.9 - - - - - - 30.09 -
04:20 75 78 58 SSE 9.7 11.2 - - - - - - 30.09 -
04:30 74 78 59 South 7.8 8.9 - - - - - - 30.09 -
04:40 74
-
60 SSE 7.8 8.9 - - - - - - 30.09 -
04:50 75 78 57 SSE 7.8 8.9 9 4.27 exactly 4.3 4 1.64 0.82 - 2.46 9 4.92 4.10 - 5.74 30.08 -
05:10 75 78 58 South 9.7 11.2 - - - - - - 30.08 -
05:20 75 78 58 South 11.7 13.4 - - - - - - 30.07 -
05:30 75 78 58 South 11.7 13.4 - - - - - - 30.07 -
05:40 75 78 59 SSE 9.7 11.2 - - - - - - 30.08 -
05:50 75 78 60 South 9.7 11.2 9 4.27 exactly 4.3 5 1.64 0.82 - 2.46 9 4.92 4.10 - 5.74 30.07 -
06:10 75 78 56 South 11.7 13.4 - - - - - - 30.06 -
06:20 75 78 56 South 11.7 13.4 - - - - - - 30.07 -
06:30 75 78 58 South 9.7 11.2 - - - - - - 30.07 -
06:40 75 78 59 South 9.7 11.2 - - - - - - 30.07 -
06:50 75 78 59 South 9.7 11.2 10 3.94 exactly 3.9 5 1.64 0.82 - 2.46 10 3.28 2.46 - 4.10 30.06 -
07:10 76 78 56 South 11.7 13.4 - - - - - - 30.05 -
07:20 76 78 56 South 13.6 15.7 - - - - - - 30.05 -
07:30 76 78 58 South 13.6 15.7 - - - - - - 30.05 -
07:40 75 78 59 South 13.6 15.7 - - - - - - 30.05 -
07:50 76 78 56 South 13.6 15.7 9 3.94 exactly 3.9 3 1.64 0.82 - 2.46 9 3.28 2.46 - 4.10 30.05 -
08:10 76 78 59 South 11.7 13.4 - - - - - - 30.05 -
08:20 76 78 58 South 11.7 13.4 - - - - - - 30.06 -
08:30 76 78 56 South 13.6 15.7 - - - - - - 30.06 -
08:40 76 78 56 South 13.6 15.7 - - - - - - 30.05 -
08:50 76 78 54 South 13.6 15.7 10 4.27 exactly 4.3 3 1.64 0.82 - 2.46 10 3.28 2.46 - 4.10 30.05 -
09:10 76 78 55 South 11.7 13.4 - - - - - - 30.05 -
09:20 76 78 55 South 13.6 15.7 - - - - - - 30.05 -
09:30 76 78 57 South 11.7 13.4 - - - - - - 30.05 -
09:40 76 78 59 South 11.7 13.4 - - - - - - 30.06 -
09:50 76 78 58 South 11.7 13.4 9 3.94 exactly 3.9 6 1.64 0.82 - 2.46 9 3.28 2.46 - 4.10 30.06 -
10:10 76 78 60 South 11.7 13.4 - - - - - - 30.06 -
10:20 76 78 60 South 11.7 13.4 - - - - - - 30.07 -
10:30 76 78 57 South 11.7 13.4 - - - - - - 30.07 -
10:40 78
-
South 13.6 15.7 - - - - - - 30.07 -
10:50 76 78 59 South 13.6 15.7 10 4.27 exactly 4.3 4 1.64 0.82 - 2.46 10 3.28 2.46 - 4.10 30.07 -
11:10 76 78 59 South 13.6 15.7 - - - - - - 30.07 -
11:20 76 78 58 South 13.6 15.7 - - - - - - 30.08 -
11:30 76 78 57 South 13.6 15.7 - - - - - - 30.07 -
11:40 76 78 58 South 13.6 15.7 - - - - - - 30.07 -
11:50 76 78 59 SSW 11.7 13.4 9 3.94 exactly 3.9 4 1.64 0.82 - 2.46 9 3.28 2.46 - 4.10 30.07 -
12:10 76 78 57 South 13.6 15.7 - - - - - - 30.08 -
12:30 77 78 55 South 11.7 13.4 - - - - - - 30.08 -
12:40 77 78 54 South 13.6 15.7 - - - - - - 30.09 -
12:50 77 78 56 South 11.7 13.4 10 3.94 exactly 3.9 4 1.64 0.82 - 2.46 10 3.28 2.46 - 4.10 30.09 -
13:10 77 78 55 South 11.7 13.4 - - - - - - 30.10 -
13:20 77
-
57 South 11.7 13.4 - - - - - - 30.10 -
13:30 77 78 57 South 11.7 13.4 - - - - - - 30.10 -
13:40 77 78 57 South 11.7 13.4 - - - - - - 30.11 -
13:50 77 78 60 South 11.7 13.4 10 3.61 exactly 3.6 4 1.64 0.82 - 2.46 10 3.28 2.46 - 4.10 30.11 -
14:10 77 78 61 South 11.7 13.4 - - - - - - 30.11 -
14:30 77 78 61 South 11.7 13.4 - - - - - - 30.11 -
14:40 77 78 61 South 11.7 13.4 - - - - - - 30.11 -
14:50 77 78 61 South 13.6 15.7 11 3.28 exactly 3.3 4 1.64 0.82 - 2.46 11 3.28 2.46 - 4.10 30.11 -
15:10 77 78 60 South 13.6 15.7 - - - - - - 30.10 -
15:20 77 78 60 South 13.6 15.7 - - - - - - 30.10 -
15:30 77 78 60 South 13.6 15.7 - - - - - - 30.10 -
15:40 77 78 59 South 13.6 15.7 - - - - - - 30.10 -
15:50 77 78 60 South 13.6 15.7 9 3.61 exactly 3.6 4 1.64 0.82 - 2.46 9 3.28 2.46 - 4.10 30.09 -

Detailed Wave Spectra

Time Water Depth Wave Height Spectral Peak Period Average Wave Period Sampling Interval Wave Record
20:00 17438 ft 4.10 ft 8.3 sec 6.6 sec 0.6 sec 2400 sec
21:00 17438 ft 4.92 ft 9.1 sec 7.3 sec 0.6 sec 2400 sec
22:00 17438 ft 4.46 ft 8.3 sec 7.0 sec 0.6 sec 2400 sec
23:00 17438 ft 4.69 ft 9.1 sec 6.7 sec 0.6 sec 2400 sec
00:00 17438 ft 4.46 ft 10.0 sec 6.6 sec 0.6 sec 2400 sec
01:00 17438 ft 4.49 ft 10.0 sec 6.7 sec 0.6 sec 2400 sec
02:00 17438 ft 4.40 ft 9.1 sec 6.8 sec 0.6 sec 2400 sec
03:00 17438 ft 4.40 ft 9.1 sec 6.9 sec 0.6 sec 2400 sec
04:00 17438 ft 4.49 ft 9.1 sec 6.9 sec 0.6 sec 2400 sec
05:00 17438 ft 4.33 ft 9.1 sec 7.1 sec 0.6 sec 2400 sec
06:00 17438 ft 4.36 ft 9.1 sec 6.8 sec 0.6 sec 2400 sec
07:00 17438 ft 4.07 ft 10.0 sec 6.2 sec 0.6 sec 2400 sec
08:00 17438 ft 4.00 ft 9.1 sec 6.0 sec 0.6 sec 2400 sec
09:00 17438 ft 4.13 ft 10.0 sec 6.3 sec 0.6 sec 2400 sec
10:00 17438 ft 3.94 ft 9.1 sec 6.2 sec 0.6 sec 2400 sec
11:00 17438 ft 4.13 ft 10.0 sec 5.9 sec 0.6 sec 2400 sec
12:00 17438 ft 4.04 ft 9.1 sec 5.4 sec 0.6 sec 2400 sec
13:00 17438 ft 3.90 ft 10.0 sec 5.2 sec 0.6 sec 2400 sec
14:00 17438 ft 3.54 ft 10.0 sec 5.3 sec 0.6 sec 2400 sec
15:00 17438 ft 3.28 ft 10.8 sec 5.3 sec 0.6 sec 2400 sec
16:00 17438 ft 3.44 ft 9.1 sec 5.0 sec 0.6 sec 2400 sec